Jackson, MI

5:42 AM EDT on July 24, 2019 (GMT -0400)
Jackson County-Reynolds

Weather History for KJXN - May, 2019

Change the Weather History Date:

Sunday, May 12, 2019

  Actual Average Record
Temperature  
Mean Temperature 48 °F 56 °F  
Max Temperature 53 °F 68 °F 87 °F (1991)
Min Temperature 43 °F 45 °F 30 °F (2013)
Degree Days  
Heating Degree Days 17 9  
Month to date heating degree days 140 129  
Since 1 July heating degree days 6537 6475  
Cooling Degree Days 0 1  
Month to date cooling degree days 0 5  
Year to date cooling degree days 0 11  
Moisture  
Dew Point 41 °F    
Average Humidity 80    
Maximum Humidity 93    
Minimum Humidity 66    
Precipitation  
Precipitation 0.08 in 0.10 in 1.60 in (1966)
Month to date precipitation 1.03 1.21  
Year to date precipitation 9.27 8.50  
Sea Level Pressure  
Sea Level Pressure 29.83 in    
Wind  
Wind Speed 8 mph (NNE)    
Max Wind Speed 14 mph    
Max Gust Speed 19 mph    
Visibility 10 miles    
Events Rain    
T = Trace of Precipitation, MM = Missing Value Source: NWS Daily Summary

Daily Weather History Graph

Daily Weather History Graph

Search for Another Location

Airport or City:

Astronomy

May. 12, 2019 Rise Set
Actual Time 6:20 AM EDT 8:48 PM EDT
Civil Twilight 5:48 AM EDT 9:20 PM EDT
Nautical Twilight 5:08 AM EDT 10:00 PM EDT
Astronomical Twilight 4:24 AM EDT 10:45 PM EDT
Moon 1:40 PM EDT (5/12) 3:09 AM EDT (5/12)
Length of Visible Light 15h 32m
Length of Day
14h 28m
First Quarter, 57% of the Moon is Illuminated
May 12
First Quarter
May 18
Full
May 26
Last Quarter
Jun 3
New
Jun 10
First Quarter

Hourly Weather History & Observations

Time (EDT) Temp. Windchill Dew Point Humidity Pressure Visibility Wind Dir Wind Speed Gust Speed Precip Events Conditions
12:56 AM 44.1 °F 40.8 °F 35.1 °F 71% 29.97 in 10.0 mi North 5.8 mph - N/A   Overcast
1:56 AM 43.0 °F 36.8 °F 35.1 °F 74% 29.95 in 10.0 mi NE 11.5 mph - N/A   Overcast
2:56 AM 43.0 °F 37.7 °F 36.0 °F 76% 29.91 in 10.0 mi NE 9.2 mph - N/A   Overcast
3:56 AM 43.0 °F 37.7 °F 37.9 °F 82% 29.88 in 10.0 mi NNE 9.2 mph - N/A   Overcast
4:56 AM 44.1 °F 39.0 °F 37.9 °F 79% 29.88 in 10.0 mi NNE 9.2 mph - N/A   Overcast
5:56 AM 44.1 °F 39.5 °F 37.9 °F 79% 29.88 in 10.0 mi North 8.1 mph - N/A   Overcast
6:56 AM 44.1 °F 40.1 °F 37.9 °F 79% 29.87 in 10.0 mi North 6.9 mph - N/A   Overcast
7:56 AM 45.0 °F 41.2 °F 37.9 °F 76% 29.87 in 10.0 mi North 6.9 mph - N/A   Overcast
8:56 AM 46.9 °F - 39.0 °F 74% 29.87 in 10.0 mi NNE 9.2 mph - N/A   Overcast
9:56 AM 48.9 °F - 41.0 °F 74% 29.86 in 10.0 mi NE 9.2 mph - N/A   Overcast
10:52 AM 48.2 °F - 41.0 °F 76% 29.83 in 10.0 mi NNE 10.4 mph - N/A   Overcast
10:56 AM 50.0 °F - 39.9 °F 68% 29.85 in 10.0 mi NNE 11.5 mph - N/A   Overcast
11:56 AM 50.0 °F - 41.0 °F 71% 29.85 in 10.0 mi ENE 9.2 mph - N/A   Overcast
12:56 PM 50.0 °F - 42.1 °F 74% 29.84 in 10.0 mi NE 9.2 mph - N/A   Overcast
1:16 PM 51.1 °F - 41.0 °F 68% 29.82 in 10.0 mi NNE 8.1 mph - N/A   Overcast
1:52 PM 51.8 °F - 42.8 °F 71% 29.81 in 10.0 mi NE 9.2 mph - N/A   Overcast
1:56 PM 51.1 °F - 43.0 °F 74% 29.83 in 10.0 mi NNE 8.1 mph - N/A   Overcast
2:56 PM 51.1 °F - 43.0 °F 74% 29.82 in 10.0 mi ENE 5.8 mph - N/A   Overcast
3:56 PM 52.0 °F - 43.0 °F 71% 29.80 in 10.0 mi NNE 6.9 mph - N/A   Overcast
4:56 PM 52.0 °F - 44.1 °F 74% 29.80 in 10.0 mi North 5.8 mph - N/A   Overcast
5:56 PM 51.1 °F - 46.0 °F 83% 29.79 in 10.0 mi NNE 9.2 mph - 0.02 in   Overcast
6:56 PM 50.0 °F - 44.1 °F 80% 29.79 in 10.0 mi NNE 10.4 mph - N/A   Overcast
7:56 PM 50.0 °F - 43.0 °F 77% 29.78 in 10.0 mi North 6.9 mph - N/A   Overcast
8:05 PM 50.0 °F - 43.0 °F 77% 29.77 in 10.0 mi North 8.1 mph - N/A   Overcast
8:31 PM 48.9 °F - 43.0 °F 80% 29.78 in 10.0 mi North 8.1 mph - N/A   Overcast
8:56 PM 48.9 °F - 44.1 °F 83% 29.79 in 10.0 mi NNE 6.9 mph - 0.00 in Rain Light Rain
9:47 PM 48.0 °F - 45.0 °F 89% 29.78 in 10.0 mi North 5.8 mph - 0.01 in   Overcast
9:56 PM 48.0 °F - 45.0 °F 89% 29.80 in 9.0 mi North 8.1 mph - 0.01 in   Overcast
10:56 PM 46.9 °F - 45.0 °F 93% 29.79 in 10.0 mi NNE 9.2 mph - N/A   Overcast
11:14 PM 46.9 °F - 45.0 °F 93% 29.79 in 10.0 mi NNE 8.1 mph - N/A   Overcast
11:56 PM 46.9 °F - 45.0 °F 93% 29.80 in 10.0 mi NNE 3.5 mph - N/A   Overcast